JST756 YSSY-YMML

Flight info

Callsign JST756
Flight time 1h 6m
Altitude 36000
Route WOL2 WOL DCT CB DCT BOYSE BOYSE8A
Aircraft A20N/M-SDE2E3FGHIRWXY/LB1

Departure

Time 2026-04-26 06:38
Airport Sydney Kingsford Smith International Airport (YSSY)

Arrival

Time 2026-04-26 07:44
Airport Melbourne Airport (YMML)
Time Latitude Longitude Altitude Speed Heading
2026-04-26 05:40 -33.93562 151.17773 30 ft 0 kts 280°
2026-04-26 06:16 -33.93563 151.17780 30 ft 1 kts 280°
2026-04-26 06:16 -33.93565 151.17792 30 ft 4 kts 280°
2026-04-26 06:16 -33.93568 151.17825 30 ft 4 kts 239°
2026-04-26 06:16 -33.93560 151.17836 30 ft 0 kts 199°
2026-04-26 06:22 -33.93564 151.17834 30 ft 2 kts 199°
2026-04-26 06:22 -33.93589 151.17825 30 ft 6 kts 195°
2026-04-26 06:22 -33.93640 151.17813 30 ft 9 kts 191°
2026-04-26 06:23 -33.93717 151.17796 30 ft 13 kts 189°
2026-04-26 06:23 -33.93808 151.17779 22 ft 7 kts 189°
2026-04-26 06:23 -33.93877 151.17773 22 ft 12 kts 173°
2026-04-26 06:23 -33.93925 151.17785 21 ft 0 kts 166°
2026-04-26 06:24 -33.93937 151.17789 22 ft 8 kts 166°
2026-04-26 06:25 -33.94016 151.17810 23 ft 14 kts 167°
2026-04-26 06:25 -33.94129 151.17839 26 ft 18 kts 168°
2026-04-26 06:25 -33.94260 151.17873 24 ft 21 kts 167°
2026-04-26 06:25 -33.94409 151.17910 24 ft 22 kts 174°
2026-04-26 06:26 -33.94554 151.17891 23 ft 21 kts 171°
2026-04-26 06:26 -33.94597 151.17903 26 ft 4 kts 167°
2026-04-26 06:26 -33.94671 151.17920 26 ft 15 kts 167°
2026-04-26 06:26 -33.94790 151.17952 20 ft 19 kts 168°
2026-04-26 06:27 -33.94879 151.17975 20 ft 21 kts 168°
2026-04-26 06:27 -33.95065 151.18024 28 ft 17 kts 164°
2026-04-26 06:27 -33.95097 151.18144 26 ft 18 kts 76°
2026-04-26 06:27 -33.95072 151.18282 24 ft 16 kts 77°
2026-04-26 06:28 -33.95047 151.18414 29 ft 17 kts 77°
2026-04-26 06:28 -33.95089 151.18518 27 ft 16 kts 155°
2026-04-26 06:28 -33.95180 151.18614 30 ft 19 kts 141°
2026-04-26 06:28 -33.95295 151.18709 28 ft 21 kts 157°
2026-04-26 06:29 -33.95453 151.18757 22 ft 25 kts 167°
2026-04-26 06:29 -33.95632 151.18804 25 ft 27 kts 170°
2026-04-26 06:29 -33.95819 151.18852 28 ft 28 kts 167°
2026-04-26 06:29 -33.95992 151.18896 27 ft 14 kts 168°
2026-04-26 06:30 -33.96063 151.18915 27 ft 17 kts 168°
2026-04-26 06:30 -33.96241 151.18961 30 ft 21 kts 168°
2026-04-26 06:30 -33.96341 151.18987 26 ft 24 kts 168°
2026-04-26 06:30 -33.96520 151.19034 19 ft 29 kts 168°
2026-04-26 06:31 -33.96661 151.19070 19 ft 17 kts 167°
2026-04-26 06:31 -33.96790 151.19067 19 ft 20 kts 181°
2026-04-26 06:31 -33.96937 151.19098 19 ft 22 kts 167°
2026-04-26 06:31 -33.97057 151.19135 20 ft 12 kts 148°
2026-04-26 06:32 -33.97063 151.19217 22 ft 0 kts 76°
2026-04-26 06:32 -33.97063 151.19218 22 ft 0 kts 76°
2026-04-26 06:33 -33.97060 151.19234 21 ft 10 kts 76°
2026-04-26 06:33 -33.97037 151.19344 20 ft 10 kts 64°
2026-04-26 06:33 -33.96988 151.19357 19 ft 0 kts 345°
2026-04-26 06:37 -33.96877 151.19329 19 ft 48 kts 349°
2026-04-26 06:37 -33.96331 151.19187 24 ft 109 kts 348°
2026-04-26 06:37 -33.95433 151.18960 55 ft 150 kts 351°
2026-04-26 06:38 -33.94447 151.18685 680 ft 147 kts 349°
2026-04-26 06:38 -33.93422 151.18324 1255 ft 164 kts 344°
2026-04-26 06:38 -33.92305 151.17866 1945 ft 176 kts 343°
2026-04-26 06:38 -33.91118 151.17325 2678 ft 188 kts 340°
2026-04-26 06:39 -33.89884 151.16697 3469 ft 196 kts 335°
2026-04-26 06:39 -33.88754 151.15727 4187 ft 211 kts 309°
2026-04-26 06:39 -33.88144 151.14023 4661 ft 241 kts 279°
2026-04-26 06:39 -33.88315 151.11900 4799 ft 268 kts 250°
2026-04-26 06:40 -33.89334 151.10027 4901 ft 271 kts 223°
2026-04-26 06:40 -33.90981 151.08929 5031 ft 277 kts 193°
2026-04-26 06:40 -33.92903 151.08908 5753 ft 278 kts 169°
2026-04-26 06:40 -33.94765 151.09474 6933 ft 275 kts 163°
2026-04-26 06:41 -33.96611 151.10152 7906 ft 280 kts 162°
2026-04-26 06:41 -33.98477 151.10863 8847 ft 284 kts 163°
2026-04-26 06:41 -34.00445 151.11112 9793 ft 288 kts 187°
2026-04-26 06:41 -34.02366 151.10410 10530 ft 301 kts 202°
2026-04-26 06:42 -34.04338 151.09401 11238 ft 307 kts 202°
2026-04-26 06:42 -34.06259 151.08384 12473 ft 299 kts 204°
2026-04-26 06:42 -34.08166 151.07283 13201 ft 311 kts 205°
2026-04-26 06:42 -34.10185 151.06077 13489 ft 335 kts 206°
2026-04-26 06:43 -34.12345 151.04785 13812 ft 355 kts 205°
2026-04-26 06:43 -34.14586 151.03453 14511 ft 361 kts 205°
2026-04-26 06:43 -34.16832 151.02127 15230 ft 366 kts 205°
2026-04-26 06:43 -34.19131 151.00773 15965 ft 370 kts 205°
2026-04-26 06:44 -34.21464 150.99401 16654 ft 375 kts 205°
2026-04-26 06:44 -34.23819 150.98016 17372 ft 380 kts 205°
2026-04-26 06:44 -34.26211 150.96608 18075 ft 384 kts 205°
2026-04-26 06:44 -34.28636 150.95180 18698 ft 390 kts 205°
2026-04-26 06:45 -34.31078 150.93741 19368 ft 392 kts 205°
2026-04-26 06:45 -34.33546 150.92286 19974 ft 395 kts 205°
2026-04-26 06:45 -34.36027 150.90821 20586 ft 400 kts 205°
2026-04-26 06:45 -34.38531 150.89342 21237 ft 402 kts 205°
2026-04-26 06:46 -34.41065 150.87847 21823 ft 406 kts 206°
2026-04-26 06:46 -34.43613 150.86340 22447 ft 409 kts 205°
2026-04-26 06:46 -34.46179 150.84821 23035 ft 413 kts 205°
2026-04-26 06:46 -34.48775 150.83283 23597 ft 417 kts 206°
2026-04-26 06:47 -34.51392 150.81736 24108 ft 421 kts 206°
2026-04-26 06:47 -34.53960 150.80021 24660 ft 422 kts 214°
2026-04-26 06:47 -34.56259 150.77805 25183 ft 423 kts 224°
2026-04-26 06:47 -34.58208 150.75168 25633 ft 426 kts 233°
2026-04-26 06:48 -34.59953 150.72248 26099 ft 429 kts 234°
2026-04-26 06:48 -34.61716 150.69314 26602 ft 431 kts 234°
2026-04-26 06:48 -34.63492 150.66368 27053 ft 434 kts 234°
2026-04-26 06:48 -34.65281 150.63401 27517 ft 435 kts 234°
2026-04-26 06:49 -34.67074 150.60423 27946 ft 438 kts 234°
2026-04-26 06:49 -34.68874 150.57429 28383 ft 440 kts 234°
2026-04-26 06:49 -34.70685 150.54412 28789 ft 442 kts 234°
2026-04-26 06:49 -34.72502 150.51383 29192 ft 445 kts 233°
2026-04-26 06:50 -34.74326 150.48339 29577 ft 447 kts 234°
2026-04-26 06:50 -34.76162 150.45273 29953 ft 449 kts 234°
2026-04-26 06:50 -34.78005 150.42192 30359 ft 451 kts 234°
2026-04-26 06:50 -34.79855 150.39097 30678 ft 453 kts 234°
2026-04-26 06:51 -34.81711 150.35990 31018 ft 454 kts 234°
2026-04-26 06:51 -34.85409 150.29789 31755 ft 456 kts 234°
2026-04-26 06:51 -34.87267 150.26670 32199 ft 454 kts 234°
2026-04-26 06:52 -34.89118 150.23559 32625 ft 453 kts 234°
2026-04-26 06:52 -34.90966 150.20452 33045 ft 452 kts 234°
2026-04-26 06:52 -34.92809 150.17349 33461 ft 451 kts 234°
2026-04-26 06:52 -34.94641 150.14263 33916 ft 448 kts 234°
2026-04-26 06:53 -34.96466 150.11185 34316 ft 447 kts 234°
2026-04-26 06:53 -34.98285 150.08115 34667 ft 445 kts 234°
2026-04-26 06:53 -35.00098 150.05052 34969 ft 445 kts 234°
2026-04-26 06:53 -35.01908 150.01994 35262 ft 445 kts 234°
2026-04-26 06:54 -35.03719 149.98929 35558 ft 444 kts 234°
2026-04-26 06:54 -35.05524 149.95871 35811 ft 444 kts 234°
2026-04-26 06:54 -35.07331 149.92808 35924 ft 444 kts 234°
2026-04-26 06:54 -35.09132 149.89752 35982 ft 443 kts 234°
2026-04-26 06:55 -35.12724 149.83652 35984 ft 441 kts 235°
2026-04-26 06:55 -35.16282 149.77600 35985 ft 442 kts 235°
2026-04-26 06:56 -35.19869 149.71488 35984 ft 442 kts 235°
2026-04-26 06:56 -35.23445 149.65383 35985 ft 441 kts 235°
2026-04-26 06:57 -35.27020 149.59270 35988 ft 441 kts 235°
2026-04-26 06:57 -35.30581 149.53171 35989 ft 440 kts 235°
2026-04-26 06:58 -35.34143 149.47056 35991 ft 441 kts 235°
2026-04-26 06:58 -35.37700 149.40943 35992 ft 440 kts 235°
2026-04-26 06:59 -35.41253 149.34824 35994 ft 440 kts 235°
2026-04-26 06:59 -35.44789 149.28725 35994 ft 442 kts 235°
2026-04-26 07:00 -35.48345 149.22580 35996 ft 441 kts 235°
2026-04-26 07:00 -35.51902 149.16422 35993 ft 441 kts 235°
2026-04-26 07:01 -35.55451 149.10267 35992 ft 442 kts 235°
2026-04-26 07:01 -35.58997 149.04107 35989 ft 441 kts 235°
2026-04-26 07:02 -35.62531 148.97957 35992 ft 440 kts 235°
2026-04-26 07:02 -35.66044 148.91833 35999 ft 440 kts 235°
2026-04-26 07:03 -35.69573 148.85669 35999 ft 441 kts 235°
2026-04-26 07:03 -35.73095 148.79508 36007 ft 440 kts 236°
2026-04-26 07:04 -35.76612 148.73344 36007 ft 440 kts 236°
2026-04-26 07:04 -35.80125 148.67176 36012 ft 439 kts 236°
2026-04-26 07:05 -35.83632 148.61007 36009 ft 439 kts 236°
2026-04-26 07:05 -35.87138 148.54832 36012 ft 439 kts 236°
2026-04-26 07:06 -35.90612 148.48689 36015 ft 439 kts 236°
2026-04-26 07:06 -35.94104 148.42486 36015 ft 440 kts 236°
2026-04-26 07:07 -35.97597 148.36271 36013 ft 440 kts 236°
2026-04-26 07:07 -36.01088 148.30052 36012 ft 440 kts 237°
2026-04-26 07:08 -36.04569 148.23838 36012 ft 440 kts 237°
2026-04-26 07:08 -36.08051 148.17614 36012 ft 441 kts 237°
2026-04-26 07:09 -36.11512 148.11414 36009 ft 441 kts 237°
2026-04-26 07:09 -36.15001 148.05170 36009 ft 441 kts 237°
2026-04-26 07:11 -36.23718 147.89550 35996 ft 441 kts 237°
2026-04-26 07:11 -36.27203 147.83285 35997 ft 441 kts 237°
2026-04-26 07:11 -36.28944 147.80150 36137 ft 442 kts 237°
2026-04-26 07:12 -36.30687 147.77008 36224 ft 441 kts 237°
2026-04-26 07:12 -36.34155 147.70749 36245 ft 440 kts 237°
2026-04-26 07:13 -36.37609 147.64488 36242 ft 440 kts 237°
2026-04-26 07:13 -36.41067 147.58206 36241 ft 440 kts 237°
2026-04-26 07:14 -36.44483 147.51993 36244 ft 438 kts 237°
2026-04-26 07:14 -36.47920 147.45728 36240 ft 439 kts 237°
2026-04-26 07:15 -36.51353 147.39459 36245 ft 438 kts 237°
2026-04-26 07:15 -36.54782 147.33188 36248 ft 437 kts 238°
2026-04-26 07:16 -36.58191 147.26943 36241 ft 437 kts 238°
2026-04-26 07:16 -36.61599 147.20686 36245 ft 436 kts 238°
2026-04-26 07:17 -36.64999 147.14430 36243 ft 436 kts 238°
2026-04-26 07:17 -36.68393 147.08176 36242 ft 433 kts 238°
2026-04-26 07:18 -36.71195 147.03005 36247 ft 433 kts 238°
2026-04-26 07:18 -36.74570 146.96763 36245 ft 434 kts 238°
2026-04-26 07:19 -36.77950 146.90501 36536 ft 435 kts 238°
2026-04-26 07:19 -36.79637 146.87372 36817 ft 433 kts 238°
2026-04-26 07:19 -36.81317 146.84252 36760 ft 431 kts 238°
2026-04-26 07:19 -36.82986 146.81145 36246 ft 432 kts 238°
2026-04-26 07:20 -36.84668 146.78016 35426 ft 436 kts 238°
2026-04-26 07:20 -36.86366 146.74856 34174 ft 442 kts 238°
2026-04-26 07:20 -36.88095 146.71634 32601 ft 451 kts 238°
2026-04-26 07:20 -36.89858 146.68342 31031 ft 460 kts 238°
2026-04-26 07:21 -36.91630 146.65032 29555 ft 468 kts 238°
2026-04-26 07:21 -36.93449 146.61633 28445 ft 471 kts 238°
2026-04-26 07:21 -36.95270 146.58231 27654 ft 467 kts 238°
2026-04-26 07:21 -36.97058 146.54888 27166 ft 457 kts 238°
2026-04-26 07:22 -36.98797 146.51632 26946 ft 441 kts 239°
2026-04-26 07:22 -37.00469 146.48501 26921 ft 423 kts 239°
2026-04-26 07:22 -37.02100 146.45434 26932 ft 428 kts 239°
2026-04-26 07:22 -37.03757 146.42310 26930 ft 431 kts 239°
2026-04-26 07:23 -37.05413 146.39191 26927 ft 430 kts 239°
2026-04-26 07:23 -37.07063 146.36083 26944 ft 427 kts 239°
2026-04-26 07:23 -37.08709 146.32981 26943 ft 427 kts 239°
2026-04-26 07:23 -37.10345 146.29894 26626 ft 423 kts 239°
2026-04-26 07:24 -37.11955 146.26854 25585 ft 427 kts 239°
2026-04-26 07:24 -37.13621 146.23702 24297 ft 439 kts 239°
2026-04-26 07:24 -37.15313 146.20495 23397 ft 442 kts 239°
2026-04-26 07:24 -37.17006 146.17292 22698 ft 437 kts 239°
2026-04-26 07:25 -37.18664 146.14155 22321 ft 425 kts 240°
2026-04-26 07:25 -37.20271 146.11116 22060 ft 411 kts 240°
2026-04-26 07:25 -37.21832 146.08155 21545 ft 404 kts 240°
2026-04-26 07:25 -37.23370 146.05228 20991 ft 400 kts 240°
2026-04-26 07:26 -37.24892 146.02326 20428 ft 396 kts 240°
2026-04-26 07:26 -37.26404 145.99444 19877 ft 393 kts 240°
2026-04-26 07:26 -37.27879 145.96631 19320 ft 390 kts 240°
2026-04-26 07:26 -37.29367 145.93792 18770 ft 387 kts 240°
2026-04-26 07:27 -37.30847 145.90964 18189 ft 385 kts 241°
2026-04-26 07:27 -37.32313 145.88173 17626 ft 381 kts 241°
2026-04-26 07:27 -37.33768 145.85408 17090 ft 377 kts 241°
2026-04-26 07:27 -37.35204 145.82670 16549 ft 373 kts 240°
2026-04-26 07:28 -37.36624 145.79961 16026 ft 370 kts 240°
2026-04-26 07:28 -37.38034 145.77271 15492 ft 366 kts 240°
2026-04-26 07:28 -37.39426 145.74611 14974 ft 363 kts 240°
2026-04-26 07:28 -37.40808 145.71967 14455 ft 360 kts 240°
2026-04-26 07:29 -37.42180 145.69342 13937 ft 357 kts 240°
2026-04-26 07:29 -37.43536 145.66743 13395 ft 353 kts 240°
2026-04-26 07:29 -37.44874 145.64176 12895 ft 348 kts 240°
2026-04-26 07:29 -37.46222 145.61670 12404 ft 344 kts 238°
2026-04-26 07:30 -37.47630 145.59249 11899 ft 341 kts 236°
2026-04-26 07:30 -37.49025 145.56903 11427 ft 338 kts 236°
2026-04-26 07:30 -37.50425 145.54540 10933 ft 334 kts 236°
2026-04-26 07:30 -37.51800 145.52202 10550 ft 328 kts 236°
2026-04-26 07:31 -37.53127 145.49933 10406 ft 315 kts 236°
2026-04-26 07:31 -37.54396 145.47754 10288 ft 301 kts 236°
2026-04-26 07:31 -37.55610 145.45662 10136 ft 290 kts 236°
2026-04-26 07:31 -37.56784 145.43634 9851 ft 283 kts 237°
2026-04-26 07:32 -37.57939 145.41637 9531 ft 279 kts 237°
2026-04-26 07:32 -37.59074 145.39674 9152 ft 276 kts 236°
2026-04-26 07:32 -37.60199 145.37728 8793 ft 273 kts 236°
2026-04-26 07:32 -37.61314 145.35800 8432 ft 270 kts 236°
2026-04-26 07:33 -37.62417 145.33897 8110 ft 266 kts 237°
2026-04-26 07:33 -37.63504 145.32015 7740 ft 265 kts 237°
2026-04-26 07:33 -37.64584 145.30141 7393 ft 263 kts 237°
2026-04-26 07:33 -37.65658 145.28279 7073 ft 261 kts 237°
2026-04-26 07:34 -37.66725 145.26426 6700 ft 261 kts 237°
2026-04-26 07:34 -37.67796 145.24564 6241 ft 264 kts 237°
2026-04-26 07:34 -37.68863 145.22708 5834 ft 264 kts 237°
2026-04-26 07:34 -37.69939 145.20840 5490 ft 262 kts 237°
2026-04-26 07:35 -37.71007 145.18983 5139 ft 260 kts 237°
2026-04-26 07:35 -37.72068 145.17139 4787 ft 258 kts 237°
2026-04-26 07:35 -37.73116 145.15316 4443 ft 255 kts 237°
2026-04-26 07:35 -37.74155 145.13510 4170 ft 250 kts 237°
2026-04-26 07:36 -37.75168 145.11744 4016 ft 245 kts 237°
2026-04-26 07:36 -37.76141 145.10055 4000 ft 230 kts 237°
2026-04-26 07:36 -37.77053 145.08472 3996 ft 216 kts 238°
2026-04-26 07:36 -37.77923 145.06954 4005 ft 215 kts 238°
2026-04-26 07:37 -37.78803 145.05411 4004 ft 216 kts 238°
2026-04-26 07:37 -37.79682 145.03871 4003 ft 216 kts 238°
2026-04-26 07:37 -37.80562 145.02331 4001 ft 217 kts 238°
2026-04-26 07:37 -37.81342 145.00706 3951 ft 214 kts 251°
2026-04-26 07:38 -37.81728 144.98910 3768 ft 210 kts 261°
2026-04-26 07:38 -37.82025 144.97120 3489 ft 212 kts 260°
2026-04-26 07:38 -37.82338 144.95300 3233 ft 211 kts 260°
2026-04-26 07:38 -37.82619 144.93490 2987 ft 209 kts 263°
2026-04-26 07:39 -37.82836 144.91702 2864 ft 201 kts 263°
2026-04-26 07:39 -37.83047 144.89999 2784 ft 190 kts 263°
2026-04-26 07:39 -37.83102 144.88356 2479 ft 189 kts 287°
2026-04-26 07:39 -37.82392 144.87013 2354 ft 188 kts 323°
2026-04-26 07:40 -37.81173 144.86448 2221 ft 185 kts 350°
2026-04-26 07:40 -37.79957 144.86247 2156 ft 170 kts 350°
2026-04-26 07:40 -37.78833 144.86045 2058 ft 156 kts 349°
2026-04-26 07:40 -37.77786 144.85856 1935 ft 148 kts 349°
2026-04-26 07:41 -37.76782 144.85677 1739 ft 144 kts 349°
2026-04-26 07:41 -37.75795 144.85538 1540 ft 143 kts 352°
2026-04-26 07:41 -37.74789 144.85374 1474 ft 148 kts 349°
2026-04-26 07:41 -37.73777 144.85143 1322 ft 145 kts 348°
2026-04-26 07:42 -37.72831 144.84894 1121 ft 134 kts 350°
2026-04-26 07:42 -37.71922 144.84711 920 ft 133 kts 352°
2026-04-26 07:42 -37.70980 144.84556 861 ft 138 kts 352°
2026-04-26 07:42 -37.70049 144.84375 676 ft 134 kts 353°
2026-04-26 07:43 -37.69134 144.84196 501 ft 132 kts 354°
2026-04-26 07:43 -37.68213 144.84027 361 ft 133 kts 353°
2026-04-26 07:43 -37.67390 144.83880 368 ft 96 kts 352°
2026-04-26 07:43 -37.66912 144.83794 384 ft 53 kts 351°
2026-04-26 07:44 -37.66617 144.83738 390 ft 20 kts
2026-04-26 07:44 -37.66519 144.83817 390 ft 2 kts 64°
2026-04-26 07:44 -37.66511 144.83851 389 ft 9 kts 80°
2026-04-26 07:44 -37.66512 144.83966 384 ft 17 kts 92°
2026-04-26 07:45 -37.66525 144.84138 375 ft 20 kts 95°
2026-04-26 07:45 -37.66533 144.84321 367 ft 18 kts 110°
2026-04-26 07:45 -37.66645 144.84397 362 ft 19 kts 141°
2026-04-26 07:45 -37.66669 144.84505 356 ft 1 kts 100°
2026-04-26 07:46 -37.66707 144.84538 362 ft 10 kts 180°
2026-04-26 07:46 -37.66757 144.84543 359 ft 0 kts 169°
2026-04-26 07:46 -37.66760 144.84544 358 ft 0 kts 169°